EHI
3 3 4 6 6 5 4 3 3 3 3 3 3 3 3 3 3 4 5 6 6 6 4 4 5 4 4 3 3 2 3 5 5 4 3 3 3 3 3 3 3 4 5
3 3 4 6 6 5 4 3 3 3 3 3 3 4 4 3 3 4 5 6 6 6 4 3 4 5 4 3 3 3 3 4 4 4 3 3 3 3 3 3 3 3 4
3 4 5 6 6 4 3 3 3 3 3 3 5 6 5 4 3 4 6 6 6 6 4 3 4 5 5 4 3 3 3 3 4 4 3 3 3 3 3 3 3 3 3
3 4 5 7 6 5 4 4 4 3 3 4 6 8 6 4 3 4 5 6 6 6 4 3 4 4 4 3 3 3 3 3 3 3 2 1 1 3 3 3 3 3 3
4 4 6 7 6 6 6 6 5 4 3 3 5 6 6 4 3 3 4 5 6 6 4 4 5 5 4 3 3 3 3 3 3 2 1 0 1 2 3 3 3 3 3
4 5 6 6 6 6 6 6 6 4 3 3 3 4 5 4 3 3 4 5 6 6 4 4 6 5 4 3 3 3 3 3 2 1 0 0 1 2 3 3 3 3 3
2 3 4 6 6 6 6 6 5 4 3 3 3 3 4 5 4 4 5 6 7 6 4 5 6 5 4 3 3 3 3 3 1 0 0 0 1 3 3 3 3 3 3
0 1 3 5 5 5 5 4 4 3 3 3 3 3 4 5 4 5 7 8 8 6 5 5 5 5 4 3 3 3 3 3 1 1 1 1 2 3 3 3 3 3 3
0 1 3 4 5 5 5 5 4 4 4 4 4 4 5 4 4 5 7 8 7 6 5 5 4 4 4 4 3 3 3 3 3 2 1 2 3 3 3 3 3 3 3
0 1 3 3 4 4 5 6 5 4 4 5 5 5 5 4 4 5 5 5 5 5 4 4 3 3 4 4 4 3 3 3 3 2 1 2 4 4 3 3 3 3 4
1 2 3 3 3 3 4 5 6 5 5 5 4 4 4 4 4 5 4 4 4 5 5 5 5 4 4 4 4 4 3 3 3 2 2 3 4 4 3 3 3 4 5
3 3 3 3 3 3 4 5 5 6 6 5 4 4 4 4 4 5 5 5 5 6 6 7 7 5 4 4 4 4 4 3 3 2 2 4 5 4 3 3 3 4 5
3 3 3 3 3 3 3 4 5 6 7 7 6 6 5 4 4 4 5 5 4 4 5 6 7 7 6 5 4 4 3 3 3 3 2 4 5 4 3 3 3 3 4
3 3 3 3 3 3 3 3 4 5 6 7 7 7 6 5 4 4 5 5 4 3 4 5 7 8 8 8 6 4 2 2 2 3 3 4 4 4 3 3 3 3 3
3 3 3 3 3 4 4 4 4 4 4 5 6 6 6 6 5 4 5 5 4 4 5 6 8 9 8 7 6 4 2 1 1 2 3 4 3 3 3 3 3 3 3
3 3 3 3 4 5 6 5 4 4 4 4 5 6 6 5 5 5 6 7 6 6 7 8 9 7 6 5 4 4 2 1 0 0 1 2 2 3 3 3 4 4 4
3 3 3 3 5 6 7 6 6 6 6 6 6 6 5 4 4 6 7 7 8 9 9 9 8 6 4 4 4 4 3 3 1 1 1 1 1 2 3 4 5 5 5
3 3 3 4 5 7 7 7 7 6 6 6 5 4 4 4 5 6 7 7 9 10 9 9 7 5 3 4 5 4 4 5 4 3 2 2 2 2 3 4 5 5 5
3 3 4 4 5 7 8 8 8 7 6 5 4 4 5 6 7 7 7 8 9 10 10 8 6 5 4 4 4 4 5 6 6 4 3 3 3 3 3 4 4 5 4
4 4 5 6 7 9 9 9 9 9 8 5 5 6 7 7 7 7 7 8 9 9 9 8 5 4 5 5 4 4 5 6 5 4 3 3 3 4 3 4 4 5 5
4 5 7 9 11 13 12 12 12 11 10 9 9 9 9 8 6 6 6 8 9 8 8 7 5 4 5 6 4 4 4 4 4 4 3 2 2 2 3 3 4 5 7
5 5 7 11 14 16 15 15 14 14 13 13 13 12 11 8 5 4 4 4 5 6 6 6 5 4 4 4 4 3 2 2 2 1 1 1 1 1 1 2 4 6 9
5 5 7 12 15 16 17 16 16 16 16 15 15 13 11 8 5 3 1 1 1 2 4 5 4 3 2 2 2 1 1 1 0 0 0 0 0 0 0 1 3 7 10
7 6 8 13 17 18 18 17 17 17 16 15 13 12 9 6 5 3 1 0 0 1 2 4 4 3 3 2 1 1 2 2 2 1 1 1 0 0 0 0 2 6 9
11 10 12 17 21 21 19 18 18 17 15 13 12 10 8 6 4 2 1 0 0 0 1 3 4 4 3 3 3 3 4 5 4 2 1 1 1 1 1 1 1 3 6
14 13 16 22 25 22 19 18 18 17 15 13 12 10 8 6 4 2 0 0 0 0 0 2 4 4 2 3 4 5 6 6 5 3 1 0 1 1 2 2 1 2 4
Wind_Speed
3 6 7 6 7 6 6 7 8 9 10 11 11 11 12 12 13 13 13 13 13 14 14 14 14 15 15 15 14 14 14 14 13 13 13 13 13 12 12 12 11 11 14
4 6 7 6 6 7 7 8 9 9 10 10 11 12 12 12 13 13 13 13 13 14 14 14 14 14 14 14 14 13 13 13 13 13 14 13 12 11 11 10 8 11 13
5 6 7 7 7 7 8 8 9 10 10 11 12 12 12 12 13 13 13 13 13 13 14 14 14 13 13 13 13 12 12 12 12 12 11 10 12 11 11 10 12 13 12
6 6 8 8 7 7 8 9 10 10 11 11 12 12 12 12 13 13 13 12 12 13 13 13 13 13 13 13 12 12 11 11 11 10 8 8 10 12 11 11 12 12 11
6 7 10 8 8 9 9 9 10 11 11 12 12 12 12 12 12 12 12 12 12 13 13 13 12 12 13 12 12 11 10 10 9 8 7 7 8 12 11 11 11 11 11
7 8 11 8 9 10 10 11 11 11 11 12 12 12 11 11 11 11 12 12 12 12 13 12 12 12 12 11 10 10 9 9 8 6 7 7 8 11 11 11 11 11 11
8 8 11 10 10 11 11 11 11 11 12 12 11 11 11 11 11 11 12 12 12 12 11 11 12 11 11 10 10 9 8 6 4 6 6 6 8 11 11 11 11 10 11
8 8 10 11 11 12 12 12 11 11 11 11 11 11 11 11 11 12 12 12 12 12 11 10 10 10 10 10 9 8 7 5 5 6 6 7 10 10 10 10 10 10 10
8 8 8 9 10 12 12 11 11 11 11 11 11 11 11 11 11 11 11 11 11 11 11 10 10 9 9 9 8 7 6 4 3 4 5 6 11 10 10 10 10 10 10
7 7 8 8 7 7 9 11 11 11 11 10 11 11 11 10 11 11 11 11 10 10 10 10 9 9 9 8 8 7 6 6 4 4 4 7 11 10 10 10 10 10 10
7 6 6 8 6 6 7 10 9 10 10 8 9 10 7 6 8 8 10 11 10 9 9 9 9 8 8 9 8 7 7 4 4 3 3 9 9 9 9 9 10 11 11
7 6 5 6 6 6 6 6 4 6 6 5 6 6 5 5 4 6 11 9 9 8 9 8 7 7 6 6 8 9 4 4 3 3 5 10 8 8 9 9 9 10 11
6 6 6 6 5 5 5 4 3 4 4 5 6 5 4 4 4 4 4 6 6 6 5 7 6 4 3 2 2 3 3 3 2 3 6 9 8 8 9 9 9 10 10
5 6 5 6 5 4 4 4 3 3 4 4 5 4 4 3 3 3 2 3 2 2 3 2 2 3 2 3 3 3 3 2 2 2 5 9 8 8 9 10 10 10 11
5 5 6 5 5 4 4 2 4 4 3 4 3 4 3 3 3 3 2 2 2 2 3 2 2 2 3 3 3 4 3 3 3 2 4 8 8 9 10 10 11 11 11
5 5 5 4 5 4 3 3 3 3 3 3 3 3 2 2 3 2 2 2 1 1 1 1 2 2 2 2 3 3 3 3 3 3 3 7 9 9 10 10 11 11 11
5 5 5 4 5 4 3 2 2 2 3 3 3 3 2 2 2 1 1 2 1 1 2 2 2 2 2 2 2 2 2 2 3 3 3 3 6 10 10 10 10 11 12
5 5 4 4 5 4 3 2 1 1 2 2 2 3 2 2 1 1 1 1 1 1 2 2 2 2 1 1 1 1 2 2 2 3 3 4 3 4 8 10 10 10 11
5 5 4 4 4 4 3 2 2 1 1 1 1 2 2 1 1 1 1 1 1 1 1 2 2 1 1 1 2 2 1 2 2 3 3 3 3 3 4 8 10 9 10
6 5 5 5 4 4 3 3 2 2 1 1 1 1 1 1 0 1 1 1 1 1 1 1 1 1 1 1 1 1 1 2 2 2 3 3 3 4 5 5 6 8 11
6 6 6 5 5 4 3 3 2 3 2 1 1 1 0 0 0 1 1 1 1 1 1 2 2 2 2 1 1 1 2 3 1 1 2 2 2 3 3 4 4 5 6
8 7 7 6 6 5 3 2 1 1 2 1 1 1 0 0 0 1 1 1 1 1 1 2 2 2 1 1 1 1 2 3 2 1 1 1 1 2 2 3 4 4 5
8 8 6 6 6 5 4 4 3 3 2 2 2 2 1 0 1 1 1 1 1 2 1 2 2 2 1 1 1 2 2 0 1 2 1 1 1 1 2 2 3 4 5
9 8 7 7 6 5 5 4 4 3 2 2 2 1 1 1 1 1 1 1 2 1 1 2 1 1 2 1 1 1 2 2 2 1 2 2 2 2 2 2 2 3 4
9 8 8 7 6 6 6 5 5 4 3 2 2 2 2 2 1 1 1 1 1 1 1 1 0 2 2 2 1 1 1 2 3 3 1 1 2 1 2 2 2 2 2
9 8 8 8 7 7 6 6 6 4 3 3 3 2 3 2 2 2 2 1 2 1 1 1 1 2 2 2 2 2 2 2 2 2 2 2 1 1 1 1 2 2 1
Wind_Direction
38 52 62 71 88 95 97 101 107 112 118 125 130 131 130 130 129 129 130 128 130 132 130 128 129 130 130 130 129 129 129 128 127 127 126 124 125 126 128 132 136 122 119
50 68 71 74 90 98 102 104 108 115 119 124 128 130 131 130 128 127 129 129 130 132 130 127 127 126 127 128 127 129 128 129 130 132 133 130 128 129 129 130 117 115 127
62 75 88 73 84 93 101 105 109 114 117 121 123 124 124 126 128 126 127 130 130 130 128 128 127 126 125 126 126 126 128 130 133 139 154 142 129 132 130 125 119 126 131
65 75 71 74 77 90 98 102 109 112 117 121 121 121 122 122 124 126 125 127 130 131 129 129 128 129 127 126 127 127 128 131 139 160 162 132 130 131 135 133 133 135 136
73 75 79 74 79 94 94 98 103 110 113 116 118 117 118 121 123 124 125 127 129 132 132 130 129 127 127 127 128 128 130 133 151 178 129 131 128 133 139 140 139 140 142
79 76 82 71 78 90 94 96 98 103 106 110 113 113 114 121 124 126 127 128 126 128 131 132 130 128 128 130 130 133 137 148 177 145 137 141 131 137 144 145 145 146 145
78 75 85 79 84 89 93 94 97 99 102 106 109 110 112 117 124 129 130 129 126 125 126 129 133 133 136 137 137 140 147 170 182 135 142 135 125 138 149 150 150 147 147
80 80 87 88 88 91 95 98 97 99 102 104 106 109 109 109 116 123 126 127 127 128 131 135 136 135 138 140 140 142 151 197 164 147 144 133 127 145 150 151 151 150 152
79 80 82 94 99 100 97 97 100 102 104 104 105 107 106 108 115 117 120 123 128 133 136 137 138 137 139 139 138 143 156 205 190 148 142 131 134 148 154 156 157 160 163
80 80 81 81 86 102 107 102 100 102 101 101 103 105 107 110 116 123 127 123 126 128 130 133 134 133 133 137 142 148 166 204 177 158 147 128 140 154 160 162 165 167 170
82 78 81 87 93 92 92 99 109 110 106 114 113 113 126 124 121 132 115 121 126 127 127 128 131 136 146 149 151 164 191 195 155 158 138 123 148 163 169 172 174 175 174
94 90 80 78 86 94 92 100 106 105 104 102 98 108 113 103 104 110 116 124 126 129 134 133 140 158 185 167 162 185 194 174 171 164 132 138 159 174 180 181 182 182 180
105 100 93 87 73 82 97 100 94 98 101 105 102 104 100 109 118 125 131 136 140 150 150 145 168 177 173 162 173 172 179 190 172 163 140 150 169 183 189 189 190 191 188
108 103 97 99 95 79 78 90 100 101 103 99 104 105 107 108 108 105 106 112 128 129 125 138 155 155 170 169 178 181 191 207 186 164 142 158 177 191 197 196 197 195 195
116 110 105 99 97 97 93 93 98 94 95 98 99 100 96 109 104 101 105 112 123 124 144 152 155 156 174 181 189 187 197 206 201 198 151 166 185 199 202 201 202 202 203
131 119 116 118 110 106 108 103 94 96 96 92 97 96 100 94 92 101 118 108 108 118 118 167 164 177 191 180 195 196 214 211 194 205 194 176 189 200 202 205 206 207 207
135 126 130 133 125 123 116 112 104 102 107 103 99 104 107 101 93 111 119 135 115 135 158 172 175 185 190 181 186 193 206 213 197 207 217 203 188 194 202 208 212 211 210
147 142 145 148 137 140 130 108 96 91 96 99 106 115 118 104 114 172 138 112 128 184 178 166 188 187 183 188 173 203 183 186 201 210 215 208 210 199 192 202 210 212 214
158 157 161 161 151 150 147 148 146 123 109 122 126 117 122 138 151 200 134 109 200 195 187 200 148 194 178 188 191 175 185 189 199 210 215 216 214 222 206 185 200 210 217
165 165 169 171 168 169 167 163 165 151 156 158 127 103 119 151 162 257 192 159 196 171 175 173 181 192 207 201 228 155 187 182 211 207 219 211 209 218 223 213 201 203 210
172 173 176 180 172 181 181 186 176 168 174 165 153 118 144 282 88 244 270 150 208 168 187 200 200 186 196 180 201 185 174 169 186 210 223 240 222 226 230 230 228 225 202
177 181 179 184 183 188 179 188 191 169 183 168 148 120 192 184 215 192 178 212 191 176 196 210 216 222 179 186 239 234 198 167 168 162 183 213 244 234 228 230 236 235 236
183 185 188 188 187 193 188 188 180 175 195 170 175 176 186 219 220 250 182 206 194 209 186 217 216 217 204 186 245 284 272 221 174 157 175 193 219 240 242 232 228 234 234
187 184 186 188 191 190 192 198 200 201 197 186 199 173 192 212 241 198 191 200 221 233 186 224 188 227 229 219 188 243 293 328 282 198 180 167 185 229 260 265 246 231 232
186 182 180 183 188 189 195 194 210 218 200 190 194 178 222 185 209 210 194 204 209 224 221 275 227 252 238 255 258 230 224 224 254 270 258 219 200 211 233 260 268 262 245
186 184 179 178 185 187 193 195 208 218 218 219 215 200 209 194 200 202 206 208 221 230 212 229 248 231 256 276 276 269 255 258 252 253 259 255 260 259 244 282 272 259 249